Change the Weather History Date:

Sunday, June 23, 2013

  Actual Average (KBJC) Record (KBJC)
Temperature  
Mean Temperature 66 °F -  
Max Temperature 85 °F 81 °F 102 °F (2012)
Min Temperature 47 °F 56 °F 44 °F (1987)
Cooling Degree Days 1    
Growing Degree Days 16 (Base 50)    
Moisture  
Dew Point 44 °F    
Average Humidity 50    
Maximum Humidity 92    
Minimum Humidity 18    
Precipitation  
Precipitation 0.00 in - - ()
Sea Level Pressure  
Sea Level Pressure 29.97 in    
Wind  
Wind Speed 4 mph (SE)    
Max Wind Speed 22 mph    
Max Gust Speed 36 mph    
Visibility 10 miles    
Events Rain , Thunderstorm    
Averages and records for this station are not official NWS values.
T = Trace of Precipitation, MM = Missing Value Source: NWS Daily Summary

Daily Weather History Graph

Daily Weather History Graph

Search for Another Location

Airport or City:

Trip Planner

Search our weather history database for the weather conditions in past years. The results will help you decide how hot, cold, wet, or windy it might be!

Date:

Astronomy

Jun. 23, 2013 Rise Set
Actual Time 5:32 AM MDT 8:32 PM MDT
Civil Twilight 4:59 AM MDT 9:05 PM MDT
Nautical Twilight 4:17 AM MDT 9:47 PM MDT
Astronomical Twilight 3:28 AM MDT 10:36 PM MDT
Moon 8:47 PM MDT (6/23) 5:52 AM MDT (6/23)
Length of Visible Light 16h 06m
Length of Day
15h 00m
Full, 100% of the Moon is Illuminated
Jun 23
Full
Jun 29
Last Quarter
Jul 8
New
Jul 15
First Quarter
Jul 22
Full

Hourly Weather History & Observations

Time (MDT) Temp. Dew Point Humidity Pressure Visibility Wind Dir Wind Speed Gust Speed Precip Events Conditions
12:15 AM 57.6 °F 49.3 °F 74% 29.95 in 10.0 mi Calm Calm - N/A   Clear
12:35 AM 57.0 °F 49.1 °F 75% 29.96 in 10.0 mi North 3.5 mph - N/A   Clear
12:55 AM 56.1 °F 50.2 °F 80% 29.96 in 10.0 mi Calm Calm - N/A   Clear
1:15 AM 55.6 °F 49.6 °F 80% 29.97 in 10.0 mi Calm Calm - N/A   Clear
1:35 AM 55.8 °F 50.0 °F 81% 29.97 in 10.0 mi SW 4.6 mph - N/A   Clear
1:55 AM 55.6 °F 50.4 °F 83% 29.99 in 10.0 mi Calm Calm - N/A   Clear
2:15 AM 54.7 °F 50.0 °F 84% 29.99 in 10.0 mi WSW 3.5 mph - N/A   Clear
2:35 AM 53.1 °F 48.7 °F 85% 30.00 in 10.0 mi SSW 4.6 mph - N/A   Clear
2:55 AM 52.7 °F 49.1 °F 88% 30.00 in 10.0 mi Calm Calm - N/A   Clear
3:15 AM 52.7 °F 49.1 °F 88% 30.00 in 10.0 mi Calm Calm - N/A   Clear
3:35 AM 53.6 °F 49.5 °F 86% 30.00 in 10.0 mi Calm Calm - N/A   Clear
3:55 AM 54.3 °F 48.6 °F 81% 30.01 in 10.0 mi SSW 3.5 mph - N/A   Clear
4:15 AM 51.4 °F 47.5 °F 86% 30.02 in 10.0 mi SW 3.5 mph - N/A   Clear
4:35 AM 51.3 °F 47.3 °F 86% 30.03 in 10.0 mi Calm Calm - N/A   Clear
4:55 AM 50.2 °F 47.1 °F 89% 30.03 in 10.0 mi Calm Calm - N/A   Clear
5:15 AM 48.7 °F 45.7 °F 89% 30.03 in 10.0 mi Calm Calm - N/A   Clear
5:35 AM 48.4 °F 45.3 °F 89% 30.04 in 10.0 mi Calm Calm - N/A   Clear
5:55 AM 47.5 °F 44.6 °F 90% 30.04 in 10.0 mi Calm Calm - N/A   Clear
6:15 AM 47.7 °F 45.3 °F 92% 30.05 in 10.0 mi Calm Calm - N/A   Clear
6:35 AM 50.9 °F 47.5 °F 88% 30.06 in 10.0 mi Calm Calm - N/A   Clear
6:55 AM 55.8 °F 51.4 °F 85% 30.07 in 10.0 mi East 6.9 mph - N/A   Clear
7:15 AM 59.5 °F 51.8 °F 76% 30.07 in 10.0 mi SE 4.6 mph - N/A   Clear
7:35 AM 61.7 °F 50.7 °F 67% 30.07 in 10.0 mi ESE 8.1 mph - N/A   Clear
7:55 AM 62.4 °F 49.1 °F 62% 30.08 in 10.0 mi ESE 12.7 mph 16.1 mph N/A   Clear
8:15 AM 62.1 °F 47.7 °F 59% 30.08 in 10.0 mi East 9.2 mph - N/A   Clear
8:35 AM 63.1 °F 46.4 °F 54% 30.09 in 10.0 mi ESE 5.8 mph - N/A   Clear
8:55 AM 64.6 °F 45.7 °F 50% 30.09 in 10.0 mi East 5.8 mph - N/A   Clear
9:15 AM 65.3 °F 46.6 °F 51% 30.08 in 10.0 mi East 6.9 mph - N/A   Clear
9:35 AM 66.4 °F 45.9 °F 48% 30.07 in 10.0 mi ESE 5.8 mph - N/A   Clear
9:55 AM 67.5 °F 44.6 °F 44% 30.07 in 10.0 mi East 5.8 mph - N/A   Clear
10:15 AM 68.9 °F 43.2 °F 39% 30.06 in 10.0 mi ESE 9.2 mph - N/A   Clear
10:35 AM 69.3 °F 43.2 °F 39% 30.04 in 10.0 mi East 3.5 mph - N/A   Clear
10:55 AM 72.3 °F 41.5 °F 33% 30.03 in 10.0 mi East 4.6 mph - N/A   Clear
11:15 AM 72.3 °F 41.2 °F 32% 30.02 in 10.0 mi SE 4.6 mph - N/A   Clear
11:35 AM 74.7 °F 40.5 °F 29% 30.02 in 10.0 mi ESE 4.6 mph - N/A   Clear
11:55 AM 75.2 °F 39.2 °F 27% 30.01 in 10.0 mi SSE 5.8 mph - N/A   Clear
12:15 PM 76.8 °F 40.5 °F 27% 30.01 in 10.0 mi SE 4.6 mph 16.1 mph N/A   Clear
12:35 PM 77.9 °F 40.3 °F 26% 29.99 in 10.0 mi NE 4.6 mph - N/A   Clear
12:55 PM 78.8 °F 40.1 °F 25% 29.98 in 10.0 mi ENE 4.6 mph - N/A   Clear
1:15 PM 79.0 °F 39.2 °F 24% 29.96 in 10.0 mi ESE 10.4 mph - N/A   Clear
1:35 PM 82.0 °F 39.0 °F 22% 29.95 in 10.0 mi East 6.9 mph - N/A   Clear
1:55 PM 81.0 °F 38.5 °F 22% 29.95 in 10.0 mi Calm Calm - N/A   Clear
2:15 PM 83.8 °F 38.5 °F 20% 29.93 in 10.0 mi NE 5.8 mph - N/A   Clear
2:35 PM 81.7 °F 38.7 °F 22% 29.92 in 10.0 mi North 8.1 mph - N/A   Clear
2:55 PM 82.2 °F 39.7 °F 22% 29.92 in 10.0 mi North 6.9 mph - N/A   Clear
3:15 PM 85.5 °F 38.7 °F 19% 29.91 in 10.0 mi East 9.2 mph - N/A   Clear
3:35 PM 82.8 °F 34.5 °F 18% 29.89 in 10.0 mi ENE 4.6 mph 16.1 mph N/A   Clear
3:55 PM 81.5 °F 43.3 °F 26% 29.89 in 10.0 mi ESE 10.4 mph 17.3 mph N/A Rain Light Rain
4:15 PM 81.3 °F 37.9 °F 21% 29.90 in 10.0 mi East 3.5 mph - N/A Thunderstorm Thunderstorm
4:35 PM 84.7 °F 40.3 °F 21% 29.89 in 10.0 mi NNW 12.7 mph 21.9 mph N/A   Scattered Clouds
4:55 PM 81.0 °F 35.4 °F 19% 29.88 in 10.0 mi North 10.4 mph - N/A   Scattered Clouds
5:15 PM 82.8 °F 35.8 °F 19% 29.87 in 10.0 mi ENE 11.5 mph - N/A   Clear
5:35 PM 85.8 °F 37.8 °F 18% 29.87 in 10.0 mi East 13.8 mph 20.7 mph N/A   Clear
5:55 PM 80.1 °F 38.5 °F 23% 29.87 in 10.0 mi East 12.7 mph 25.3 mph N/A   Clear
6:15 PM 77.5 °F 39.2 °F 25% 29.88 in 10.0 mi ESE 17.3 mph 21.9 mph N/A   Clear
6:35 PM 75.4 °F 39.4 °F 27% 29.87 in 10.0 mi ESE 16.1 mph 21.9 mph N/A   Clear
6:55 PM 73.6 °F 41.0 °F 31% 29.87 in 10.0 mi ESE 8.1 mph - N/A   Clear
7:15 PM 73.2 °F 42.3 °F 33% 29.88 in 10.0 mi Calm Calm - N/A   Scattered Clouds
7:35 PM 74.3 °F 41.9 °F 31% 29.87 in 10.0 mi Calm Calm - N/A   Scattered Clouds
7:55 PM 73.0 °F 42.4 °F 33% 29.88 in 10.0 mi SSW 4.6 mph - N/A   Clear
8:15 PM 72.5 °F 43.7 °F 36% 29.90 in 10.0 mi SSW 8.1 mph - N/A   Clear
8:35 PM 73.2 °F 42.4 °F 33% 29.89 in 10.0 mi WSW 5.8 mph - N/A Thunderstorm Clear
8:55 PM 73.4 °F 41.9 °F 32% 29.92 in 10.0 mi SW 11.5 mph - N/A Thunderstorm Thunderstorm
9:15 PM 72.5 °F 43.7 °F 36% 29.93 in 10.0 mi SSW 6.9 mph 25.3 mph N/A Rain , Thunderstorm Light Thunderstorms and Rain
9:35 PM 73.8 °F 38.7 °F 28% 29.91 in 10.0 mi SSE 9.2 mph - N/A Thunderstorm Thunderstorm
9:55 PM 75.2 °F 38.3 °F 26% 29.88 in 10.0 mi SE 21.9 mph 35.7 mph N/A Rain Light Rain
10:15 PM 69.3 °F 43.5 °F 39% 29.91 in 10.0 mi SW 6.9 mph 28.8 mph N/A Rain , Thunderstorm Light Thunderstorms and Rain
10:35 PM 64.6 °F 49.5 °F 58% 29.94 in 10.0 mi South 10.4 mph 17.3 mph N/A Rain , Thunderstorm Light Thunderstorms and Rain
10:55 PM 64.4 °F 49.5 °F 58% 29.93 in 10.0 mi SSW 6.9 mph - N/A Thunderstorm Clear
11:15 PM 63.7 °F 50.0 °F 61% 29.95 in 10.0 mi SSW 9.2 mph - N/A   Scattered Clouds
11:35 PM 63.3 °F 50.2 °F 62% 29.96 in 10.0 mi SW 6.9 mph - N/A   Scattered Clouds
11:55 PM 64.4 °F 48.7 °F 57% 29.96 in 10.0 mi SSW 9.2 mph - N/A   Scattered Clouds